[[{"header":{"parameterUnit":"m.s-1","parameterCategory":1,"la1":30.2991,"la2":30.254,"lo1":-89.0895,"lo2":-89.0444,"dy":0.0017,"dx":0.0017,"nx":28,"ny":28,"refTime":"2023-08-05T21:00:00:Z","depth":0,"parameterNumber":2,"parameterNumberName":"U-component_of_WINDS"},"data":[0,0,0,0,0,0,0,0,0,0,0,0,0,0,0,0,0,0,0,0,0,0,0,0,0,0,0,0,0,0,0,0,0,0,0,0,0,0,0,0,0,0,0,0,0,0,0,0,0,0,0,0,0,0,0,0,0,0,1.8833,1.8833,0,1.8906,1.8907,1.8907,1.8943,1.8943,1.8943,1.8943,1.9018,1.902,1.9022,0,0,0,0,0,0,0,0,0,0,0,0,0,1.8729,1.873,1.8833,1.8834,1.8834,1.8906,1.8907,1.8908,1.8943,1.8943,1.8943,1.8943,1.9017,1.902,1.9022,0,0,0,0,0,0,0,0,0,0,0,0,0,1.8785,1.8731,1.8832,1.8861,1.8864,1.8905,1.8907,1.8908,1.8943,1.8943,1.8943,1.8943,1.9017,1.902,1.9023,1.9042,0,0,1.9032,1.9033,0,0,0,0,0,0,0,0,1.8782,1.8789,1.8856,1.8859,1.8862,1.8915,1.8898,1.8953,1.8943,1.8913,1.8943,1.8943,1.8984,1.899,1.9003,1.9045,1.9049,1.9032,1.9034,1.9035,1.9036,0,0,0,0,0,0,0,1.8778,1.8786,1.8862,1.8857,1.8861,1.8871,1.8879,1.8908,1.8948,1.8916,1.8918,1.8926,1.8986,1.9,1.9005,1.905,1.9032,1.9035,1.9037,1.9038,1.9118,1.9118,0,0,0,0,0,0,1.8769,1.8782,1.8859,1.8864,1.8821,1.8873,1.8882,1.8898,1.8947,1.8955,1.8926,1.8928,1.8995,1.9002,1.9008,1.9038,1.9035,1.9038,1.904,1.9118,1.9118,1.9119,0,0,0,0,0,0,1.8766,1.8775,1.8856,1.8824,1.8835,1.8875,1.8893,1.89,1.8914,1.8956,1.8963,1.8934,1.8995,1.9004,1.9035,1.9041,1.9039,1.9042,1.9117,1.9118,1.9118,1.9095,0,0,0,0,0,0,1.8763,1.8774,1.878,1.8824,1.8837,1.888,1.8893,1.8901,1.8919,1.8922,1.8964,1.8972,1.8996,1.903,1.9038,1.9045,1.9045,1.9117,1.9118,1.9118,1.9095,1.9094,1.9093,0,0,0,0,0,1.8759,1.8769,1.878,1.8789,1.8845,1.888,1.8887,1.8915,1.892,1.8927,1.8955,1.897,1.9039,1.9033,1.9042,1.905,1.9117,1.9117,1.9118,1.9095,1.9094,1.9093,0,0,0,0,0,0,1.8724,1.8775,1.8788,1.8812,1.8842,1.8886,1.8895,1.8912,1.8941,1.8942,1.8976,1.8986,1.9014,1.9035,1.9027,1.9075,1.908,1.9082,1.9059,1.9059,1.9058,1.9052,1.9047,0,0,0,0,0,1.8719,1.8742,1.8786,1.8803,1.8818,1.8854,1.8871,1.889,1.8922,1.8935,1.8964,1.8995,1.9025,1.9043,1.9072,1.9099,1.9111,1.911,1.9109,1.9108,1.911,1.9131,1.9132,1.9121,1.9121,1.9121,0,0,1.8708,1.874,1.8752,1.8797,1.8822,1.8848,1.8864,1.8889,1.8909,1.8938,1.897,1.8994,1.9031,1.9062,1.9076,1.908,1.9117,1.9109,1.9108,1.911,1.9132,1.9133,1.9134,1.9121,1.9121,1.9121,0,0,1.8703,1.8727,1.8747,1.8773,1.8812,1.8837,1.8842,1.8885,1.8903,1.8935,1.896,1.8985,1.9033,1.9061,1.9081,1.9094,1.911,1.9102,1.9098,1.9118,1.9119,1.912,1.9128,1.913,1.9104,1.9104,1.9104,0,1.8685,1.8723,1.8754,1.8779,1.8801,1.8831,1.8853,1.8877,1.8923,1.8938,1.8941,1.9007,1.9034,1.9074,1.9078,1.9092,1.9102,1.9097,1.9117,1.9118,1.9119,1.9127,1.913,1.9103,1.9103,1.9103,1.9103,0,1.8701,1.8727,1.8739,1.8784,1.8807,1.883,1.8868,1.8887,1.8907,1.8933,1.8969,1.9004,1.9043,1.9054,1.9072,1.9098,1.91,1.911,1.9115,1.9119,1.9127,1.913,1.9101,1.9102,1.9102,1.9102,0,0,1.8669,1.8737,1.8741,1.8765,1.8813,1.8835,1.8862,1.8902,1.8919,1.8952,1.8978,1.9022,1.9033,1.9056,1.9079,1.9097,1.911,1.9105,1.9107,1.9107,1.9146,1.9138,1.9141,1.9122,1.9122,1.9123,1.9143,0,1.8672,1.872,1.8753,1.8789,1.8817,1.885,1.8874,1.8908,1.8935,1.8964,1.8994,1.9026,1.9037,1.9052,1.9071,1.9104,1.9118,1.9103,1.9148,1.9149,1.9138,1.9145,1.9135,1.9153,1.9146,1.9147,1.9147,0,1.8679,1.8713,1.8753,1.8804,1.8817,1.8838,1.888,1.8906,1.8948,1.8967,1.8996,1.9021,1.9054,1.9059,1.9108,1.9097,1.9119,1.9138,1.914,1.9145,1.9148,1.9151,1.9158,1.9161,1.9152,1.9152,1.9151,0,1.8656,1.8712,1.8744,1.8763,1.8822,1.8838,1.8863,1.8905,1.8928,1.8966,1.8982,1.9023,1.9045,1.9078,1.9114,1.9114,1.9161,1.9168,1.918,1.9179,1.9187,1.9186,1.9199,1.92,1.92,1.92,1.92,0,1.8654,1.8678,1.8735,1.8755,1.8784,1.8824,1.8852,1.8881,1.8919,1.8948,1.8979,1.9005,1.9052,1.9085,1.9114,1.9153,1.9162,1.918,1.9188,1.9178,1.9176,1.9192,1.9192,1.9201,1.92,1.92,1.92,0,1.8631,1.867,1.8708,1.8764,1.8779,1.8798,1.8847,1.8869,1.89,1.8936,1.8947,1.8996,1.9038,1.9078,1.9133,1.9153,1.9192,1.9202,1.9178,1.9182,1.9194,1.9193,1.9217,1.9224,1.9219,1.9219,1.9219,0,1.8628,1.8647,1.8706,1.8728,1.8754,1.8787,1.8813,1.8855,1.888,1.8933,1.8951,1.8995,1.9032,1.9098,1.914,1.9184,1.9195,1.9201,1.9202,1.9193,1.9198,1.9197,1.9201,1.92,1.92,1.92,1.9199,0,1.8618,1.8638,1.8673,1.8717,1.8747,1.8783,1.8821,1.8838,1.8887,1.8916,1.8959,1.8989,1.9048,1.9093,1.9143,1.9172,1.9196,1.92,1.9205,1.9195,1.9182,1.9192,1.9177,1.9198,1.9198,1.9198,1.9198,1.9199,1.8606,1.8627,1.8673,1.8713,1.8747,1.8783,1.8808,1.8845,1.8882,1.8933,1.8957,1.9002,1.905,1.912,1.915,1.9188,1.9193,1.92,1.9202,1.9204,1.9203,1.9176,1.9197,1.9197,1.9197,1.9197,1.9197,0,1.86,1.8633,1.867,1.8723,1.8756,1.8776,1.8821,1.8847,1.8887,1.8929,1.8967,1.9021,1.9066,1.9114,1.9164,1.9185,1.9198,1.9197,1.9196,1.9203,1.9194,1.9185,1.9187,1.9187,1.9187,1.9187,1.9187,1.9187,1.86,1.8638,1.8665,1.8722,1.8756,1.88,1.8825,1.886,1.8895,1.8953,1.8992,1.9023,1.907,1.9124,1.9169,1.9182,1.92,1.9196,1.9213,1.9203,1.9203,1.9204,1.9196,1.9199,1.9199,1.9219,1.9219,1.9219]},{"header":{"parameterUnit":"m.s-1","parameterCategory":1,"la1":30.2991,"la2":30.254,"lo1":-89.0895,"lo2":-89.0444,"dy":0.0017,"dx":0.0017,"nx":28,"ny":28,"refTime":"2023-08-05T21:00:00:Z","depth":0,"parameterNumber":3,"parameterNumberName":"V-component_of_WINDS"},"data":[0,0,0,0,0,0,0,0,0,0,0,0,0,0,0,0,0,0,0,0,0,0,0,0,0,0,0,0,0,0,0,0,0,0,0,0,0,0,0,0,0,0,0,0,0,0,0,0,0,0,0,0,0,0,0,0,0,0,4.2019,4.202,0,4.2136,4.2138,4.2139,4.22,4.22,4.2201,4.2201,4.2317,4.232,4.2323,0,0,0,0,0,0,0,0,0,0,0,0,0,4.1843,4.1846,4.2019,4.202,4.2022,4.2136,4.2138,4.2139,4.22,4.22,4.2201,4.2201,4.2316,4.2319,4.2323,0,0,0,0,0,0,0,0,0,0,0,0,0,4.1935,4.1847,4.2018,4.2066,4.2072,4.2136,4.2138,4.214,4.22,4.22,4.2201,4.2201,4.2315,4.2319,4.2323,4.2348,0,0,4.2337,4.2339,0,0,0,0,0,0,0,0,4.193,4.1942,4.2058,4.2063,4.2069,4.2154,4.2118,4.2209,4.22,4.2151,4.2201,4.2201,4.2262,4.2271,4.2293,4.2353,4.2358,4.2337,4.234,4.2342,4.2343,0,0,0,0,0,0,0,4.1924,4.1937,4.2065,4.2059,4.2066,4.208,4.2093,4.2136,4.2204,4.2156,4.216,4.2174,4.2265,4.2288,4.2296,4.236,4.2337,4.2341,4.2344,4.2346,4.2447,4.2446,0,0,0,0,0,0,4.191,4.1931,4.2061,4.2069,4.1999,4.2083,4.2098,4.2126,4.2204,4.2216,4.2173,4.2176,4.228,4.229,4.23,4.2334,4.2342,4.2346,4.2349,4.2447,4.2447,4.2446,0,0,0,0,0,0,4.1906,4.1921,4.2057,4.2001,4.202,4.2086,4.2117,4.2129,4.2152,4.2218,4.223,4.2184,4.2281,4.2294,4.2336,4.2339,4.2348,4.2352,4.2447,4.2447,4.2447,4.2402,0,0,0,0,0,0,4.1901,4.1919,4.1931,4.2001,4.2022,4.2092,4.2118,4.2131,4.216,4.2164,4.2231,4.2242,4.2282,4.2329,4.234,4.2345,4.2356,4.2447,4.2447,4.2447,4.2404,4.24,4.2398,0,0,0,0,0,4.1894,4.1912,4.1931,4.1946,4.2038,4.2092,4.2104,4.215,4.216,4.2171,4.2213,4.224,4.2336,4.2333,4.2346,4.2352,4.2447,4.2447,4.2447,4.2405,4.2401,4.2398,0,0,0,0,0,0,4.1839,4.1923,4.1944,4.1986,4.2031,4.2102,4.2118,4.2145,4.2188,4.219,4.2245,4.2259,4.2296,4.2328,4.2323,4.238,4.2394,4.2397,4.2358,4.2355,4.2352,4.2344,4.236,0,0,0,0,0,4.1832,4.187,4.194,4.197,4.1992,4.2051,4.2076,4.2108,4.2157,4.2176,4.2221,4.2267,4.2307,4.2333,4.2374,4.2408,4.2423,4.2419,4.2416,4.2414,4.2415,4.2436,4.2435,4.2446,4.2446,4.2446,0,0,4.1817,4.1868,4.1888,4.1961,4.2,4.2037,4.2067,4.2104,4.2132,4.2181,4.2225,4.2259,4.2313,4.2351,4.2371,4.2379,4.2415,4.2414,4.2411,4.2414,4.2436,4.2434,4.2433,4.2446,4.2446,4.2446,0,0,4.181,4.1852,4.1882,4.192,4.198,4.2018,4.2025,4.2092,4.2117,4.2161,4.2199,4.2232,4.2301,4.2338,4.2365,4.2371,4.2397,4.2382,4.2368,4.2387,4.2386,4.2386,4.2388,4.2388,4.2384,4.2384,4.2384,0,4.1784,4.1843,4.1893,4.1929,4.1959,4.2007,4.2036,4.2071,4.214,4.2159,4.2168,4.2256,4.2295,4.2343,4.2344,4.2365,4.2374,4.2375,4.2382,4.2382,4.2383,4.2385,4.2386,4.2382,4.2382,4.2382,4.2382,0,4.1807,4.1847,4.1864,4.1931,4.1963,4.1995,4.2049,4.2075,4.2104,4.2141,4.2185,4.2234,4.2286,4.23,4.2327,4.2351,4.2355,4.2372,4.2388,4.2379,4.2382,4.2383,4.2378,4.2379,4.238,4.238,0,0,4.1769,4.1863,4.1868,4.1899,4.1968,4.1999,4.2033,4.2085,4.2106,4.2151,4.2181,4.2238,4.2255,4.2286,4.2318,4.2335,4.2336,4.2351,4.2353,4.2347,4.2365,4.2352,4.2352,4.2354,4.2354,4.2355,4.2361,0,4.1771,4.1836,4.1882,4.1929,4.1966,4.2011,4.2041,4.2085,4.212,4.2156,4.2194,4.2234,4.2253,4.2272,4.2291,4.2332,4.2341,4.2332,4.2381,4.2382,4.2367,4.2354,4.234,4.2343,4.2362,4.2362,4.2363,0,4.1783,4.1828,4.1879,4.1943,4.1961,4.1987,4.2038,4.2071,4.2122,4.2146,4.2181,4.2215,4.2251,4.2263,4.2313,4.2307,4.2329,4.2352,4.2353,4.236,4.2372,4.236,4.2345,4.2346,4.2365,4.2365,4.2365,0,4.175,4.1823,4.1863,4.1888,4.1964,4.1981,4.2014,4.2065,4.2093,4.2137,4.2155,4.2202,4.2228,4.2263,4.2308,4.2312,4.2354,4.2369,4.2374,4.2373,4.2382,4.2381,4.237,4.2395,4.2395,4.2395,4.2395,0,4.1748,4.1777,4.185,4.1874,4.1908,4.196,4.1991,4.2027,4.2072,4.2103,4.2144,4.2172,4.2229,4.2264,4.2299,4.2336,4.2347,4.2367,4.2376,4.2364,4.2361,4.2379,4.238,4.2395,4.2395,4.2395,4.2395,0,4.1717,4.1767,4.1813,4.1882,4.19,4.1921,4.1979,4.2004,4.2041,4.208,4.2092,4.2151,4.2194,4.2242,4.23,4.2324,4.2358,4.2371,4.2342,4.2347,4.235,4.2349,4.2351,4.2354,4.2376,4.2376,4.2376,0,4.1713,4.1736,4.1807,4.1832,4.1864,4.1902,4.1932,4.1983,4.2011,4.2071,4.2088,4.2134,4.2174,4.2241,4.2288,4.2333,4.2347,4.2345,4.2354,4.2341,4.2347,4.2346,4.2348,4.2342,4.2342,4.2341,4.2341,0,4.17,4.1723,4.1764,4.1814,4.1848,4.1889,4.1932,4.1949,4.2009,4.2038,4.2084,4.2115,4.2175,4.222,4.2271,4.2303,4.2331,4.2337,4.2341,4.2329,4.2311,4.2321,4.2335,4.2337,4.2338,4.2338,4.2338,4.2338,4.1682,4.1705,4.1759,4.1803,4.1841,4.188,4.1907,4.1948,4.1987,4.2041,4.2068,4.2113,4.2163,4.2234,4.2265,4.23,4.2309,4.2314,4.2316,4.2316,4.2313,4.2305,4.2309,4.2309,4.231,4.231,4.231,0,4.1671,4.1708,4.1749,4.1808,4.1842,4.1867,4.1915,4.1942,4.1982,4.2026,4.2065,4.2116,4.2161,4.2211,4.2258,4.2276,4.229,4.2287,4.2286,4.2293,4.2302,4.2294,4.2275,4.2275,4.2275,4.2275,4.2275,4.2275,4.167,4.1711,4.174,4.1799,4.1836,4.1881,4.1907,4.1942,4.1978,4.2034,4.2072,4.2104,4.2151,4.2202,4.2243,4.2257,4.2272,4.2265,4.2282,4.2289,4.2292,4.2295,4.2288,4.2267,4.2267,4.227,4.227,4.227]}]]